DW3648 Weather Reports


time (UTC)temp
F
wind
direction
speed
knots
gust
knots
rain 1hr
in
rain 24hr
in
rain mn
in
humidity
%
barometer
mb
20260510234548 55 286 0.0 1.7 0.00 0.00 0.00 71 1011.1
20260510233046 55 286 0.0 0.0 0.00 0.00 0.00 71 1011.1
20260510231549 56 286 0.0 0.0 0.00 0.00 0.00 72 1011.1
20260510230044 56 286 0.0 2.6 0.00 0.00 0.00 73 1011.0
20260510224546 56 286 0.0 0.9 0.00 0.00 0.00 73 1010.8
20260510223100 56 286 0.0 4.3 0.00 0.00 0.00 73 1010.9
20260510221542 56 256 0.0 2.6 0.00 0.00 0.00 73 1010.8
20260510220040 56 279 0.0 3.5 0.00 0.00 0.00 73 1010.8
20260510214540 57 247 1.7 5.2 0.00 0.00 0.00 73 1010.8
20260510213010 57 277 0.0 5.2 0.00 0.00 0.00 75 1010.9
20260510211508 57 220 0.0 4.3 0.00 0.00 0.00 74 1010.8
20260510210039 57 292 0.0 0.0 0.00 0.00 0.00 74 1010.7
20260510204541 58 292 0.0 2.6 0.00 0.00 0.00 74 1010.5
20260510203035 58 272 0.0 1.7 0.00 0.00 0.00 74 1010.3
20260510201535 58 246 0.9 5.2 0.00 0.00 0.00 73 1010.1
20260510200035 58 259 0.9 4.3 0.00 0.00 0.00 73 1009.9
20260510194533 59 269 2.6 6.1 0.00 0.00 0.00 72 1010.1
20260510193031 59 286 1.7 5.2 0.00 0.00 0.00 72 1009.7
20260510191529 59 314 2.6 5.2 0.00 0.00 0.00 71 1009.7
20260510190031 60 281 0.9 6.1 0.00 0.00 0.00 70 1009.6
20260510184527 60 273 3.5 6.1 0.00 0.00 0.00 68 1009.5
20260510183028 61 265 2.6 7.8 0.00 0.00 0.00 66 1009.5
20260510181524 63 259 2.6 7.8 0.00 0.00 0.00 61 1009.1
20260510180023 63 250 2.6 12.2 0.00 0.00 0.00 55 1009.0
20260510174524 64 126 4.3 14.8 0.00 0.00 0.00 53 1008.9
20260510173021 64 129 3.5 13.0 0.00 0.00 0.00 52 1008.9
20260510171520 65 178 6.1 12.2 0.00 0.00 0.00 51 1009.0
20260510170022 65 197 2.6 12.2 0.00 0.00 0.00 52 1009.2
20260510164519 65 144 4.3 13.0 0.00 0.00 0.00 52 1009.3
20260510163017 66 71 4.3 12.2 0.00 0.00 0.00 52 1009.3
20260510161519 66 169 5.2 13.0 0.00 0.00 0.00 53 1009.1
20260510160016 65 200 4.3 12.2 0.00 0.00 0.00 54 1009.3
20260510154516 66 121 3.5 15.6 0.00 0.00 0.00 53 1009.2
20260510153031 66 258 3.5 16.5 0.00 0.00 0.00 53 1009.1
20260510151522 66 34 2.6 12.2 0.00 0.00 0.00 53 1009.1
20260510150012 66 184 2.6 11.3 0.00 0.00 0.00 52 1009.1
20260510144511 67 306 4.3 12.2 0.00 0.00 0.00 51 1009.0
20260510143042 66 111 2.6 14.8 0.00 0.00 0.00 52 1009.0
20260510141544 65 161 2.6 10.4 0.00 0.00 0.00 53 1009.2
20260510140033 66 117 4.3 13.0 0.00 0.00 0.00 53 1009.6
20260510134532 64 312 1.7 12.2 0.00 0.00 0.00 54 1009.7
20260510133030 64 260 2.6 10.4 0.00 0.00 0.00 54 1009.5
20260510131530 65 254 3.5 14.8 0.00 0.00 0.00 52 1009.5
20260510130040 63 121 4.3 13.0 0.00 0.00 0.00 54 1009.6
20260510124528 63 107 3.5 9.6 0.00 0.00 0.00 55 1009.6
20260510123025 63 164 5.2 13.0 0.00 0.00 0.00 54 1009.6
20260510121525 64 224 3.5 8.7 0.00 0.00 0.00 55 1009.8
20260510120029 64 202 5.2 13.0 0.00 0.00 0.00 54 1009.8
20260510114523 64 194 5.2 13.9 0.00 0.00 0.00 54 1009.9
20260510113022 65 194 1.7 10.4 0.00 0.00 0.00 54 1010.0
20260510111522 64 94 5.2 13.9 0.00 0.00 0.00 55 1010.2
20260510110032 63 205 7.0 12.2 0.00 0.00 0.00 56 1010.3
20260510104513 63 177 5.2 13.0 0.00 0.00 0.00 57 1010.4
20260510103013 62 103 2.6 12.2 0.00 0.00 0.00 58 1010.6
20260510103011 62 96 2.6 12.2 0.00 0.00 0.00 58 1010.6
20260510101516 62 187 6.1 15.6 0.00 0.00 0.00 57 1010.4
20260510100010 62 184 3.5 11.3 0.00 0.00 0.00 56 1010.4
20260510094509 62 234 3.5 9.6 0.00 0.00 0.00 56 1010.2
20260510093007 62 226 2.6 11.3 0.00 0.00 0.00 56 1010.2
20260510091506 63 245 4.3 11.3 0.00 0.00 0.00 54 1010.0
20260510090004 62 171 0.9 10.4 0.00 0.00 0.00 56 1010.1
20260510084535 62 209 3.5 9.6 0.00 0.00 0.00 56 1010.1
20260510083031 62 229 1.7 13.0 0.00 0.00 0.00 56 1010.1
20260510081528 61 177 3.5 12.2 0.00 0.00 0.00 56 1010.1
20260510080025 61 169 1.7 10.4 0.00 0.00 0.00 56 1010.2
20260510074522 60 158 2.6 9.6 0.00 0.00 0.00 57 1010.1
20260510073018 59 225 0.9 4.3 0.00 0.00 0.00 58 1010.1
20260510071548 58 192 0.9 4.3 0.00 0.00 0.00 60 1009.9
20260510070049 58 203 1.7 5.2 0.00 0.00 0.00 60 1009.9
20260510064542 57 242 0.9 3.5 0.00 0.02 0.00 64 1009.8
20260510063043 56 261 0.0 2.6 0.00 0.02 0.00 65 1009.9
20260510061541 55 224 0.0 3.5 0.00 0.02 0.00 67 1009.8
20260510060041 55 281 0.9 3.5 0.00 0.02 0.00 67 1009.6
20260510054538 55 271 0.0 3.5 0.00 0.06 0.00 66 1009.4
20260510053038 55 226 0.0 2.6 0.00 0.06 0.00 66 1009.3
20260510051537 55 103 0.0 4.3 0.00 0.06 0.00 66 1009.4
20260510050038 55 107 0.9 3.5 0.00 0.06 0.00 66 1009.4
20260510044533 55 121 1.7 4.3 0.00 0.06 0.00 66 1009.3
20260510043033 55 131 2.6 6.1 0.00 0.06 0.00 66 1009.4
20260510041532 54 125 3.5 7.0 0.00 0.06 0.00 67 1009.4
20260510040031 53 110 1.7 4.3 0.00 0.06 0.00 69 1009.6
20260510034529 53 279 1.7 3.5 0.00 0.13 0.00 69 1009.8
20260510033029 53 279 0.0 2.6 0.00 0.13 0.00 70 1009.8
20260510031527 53 279 0.0 0.0 0.00 0.13 0.00 70 1009.7
20260510030026 54 279 0.0 1.7 0.00 0.13 0.00 69 1009.7
20260510024521 54 279 0.0 1.7 0.00 0.14 0.00 67 1009.8
20260510023019 55 279 0.9 3.5 0.00 0.14 0.00 66 1009.7
20260510021523 55 227 0.0 0.0 0.00 0.14 0.00 62 1009.6
20260510020012 56 227 0.0 1.7 0.00 0.14 0.00 60 1009.5
20260510014508 57 211 0.9 2.6 0.00 0.14 0.00 58 1009.6
20260510013007 57 85 0.9 4.3 0.00 0.14 0.00 56 1009.7
20260510011508 57 80 0.9 7.8 0.00 0.14 0.00 56 1009.7
20260510010004 57 98 0.9 2.6 0.00 0.14 0.00 56 1009.8
20260510004600 57 106 0.9 2.6 0.00 0.14 0.14 55 1010.1
20260510003107 57 160 0.0 4.3 0.00 0.14 0.14 54 1010.2
20260510001602 58 117 0.9 7.8 0.00 0.14 0.14 53 1010.2
20260510000058 58 123 1.7 3.5 0.00 0.14 0.14 54 1010.3